Overview Statistics Trail Chart Weather Telemetry Raw packets
 

This is the latest recevied weather packets stored in our database for station/object SR8WXL-13. If no packets are shown the sender has not sent any weather packets the latest 10 day(s).

<< 39 40 41 42 43 >>
Time Temp. Humidity Pressure Rain* Wind** Luminosity Snow
1787822310 20° C 70% 1036.3 hPa 0 mm - - -
1787821544 18.89° C 73% 1036.4 hPa 0 mm - - -
1787820765 18.89° C 74% 1036.5 hPa 0 mm - - -
1787820037 17.78° C 76% 1036.3 hPa 0 mm - - -
1787819185 18.89° C 76% 1036.3 hPa 0 mm - - -
1787818356 17.78° C 78% 1036.5 hPa 0 mm - - -
1787817495 17.78° C 80% 1036.3 hPa 0 mm - - -
1787816643 17.22° C 81% 1036.2 hPa 0 mm - - -
1787815819 17.22° C 84% 1036.2 hPa 0 mm - - -
1787814929 17.22° C 84% 1036.1 hPa 0 mm - - -
1787814205 16.11° C 86% 1035.9 hPa 0 mm - - -
1787813362 16.11° C 85% 1036 hPa 0 mm - - -
1787812562 16.11° C 87% 1035.9 hPa 0 mm - - -
1787811719 16.11° C 88% 1035.8 hPa 0 mm - - -
1787810853 13.89° C 93% 1035.5 hPa 0 mm - - -
1787810126 12.78° C 99% 1035.6 hPa 0 mm - - -
1787809230 12.22° C 99% 1035.8 hPa 0 mm - - -
1787808430 11.11° C 99% 1035.9 hPa 0 mm - - -
1787807677 11.11° C 99% 1035.9 hPa 0 mm - - -
1787806889 10° C 99% 1035.8 hPa 0 mm - - -
1787806020 8.89° C 99% 1035.9 hPa 0 mm - - -
1787805170 7.78° C 99% 1036 hPa 0 mm - - -
1787804350 7.22° C 99% 1035.7 hPa 0 mm - - -
1787803476 7.22° C 99% 1035.9 hPa 0 mm - - -
1787802656 7.22° C 99% 1035.7 hPa 0 mm - - -

* Rain latest hour (hover to see other rain measurements)
** Current wind speed in m/s (hover to see current wind gust speed)